This demonstration page uses our WeatherBlox Daily Observations layout. Learn more.

Left ArrowRight Arrow

Hourly Observations for February 10, 2022

Temp ( °F °C ) Dew Point ( °F °C ) Humidity (%) Winds ( mph kmh ) Pressure ( in mb ) Visibility ( mi km ) Precip ( " mm )
12:56 am 00:56 Clear 31 -0.6 28 -2.2 89 89 NW 8 13 30.14 1021 10 16 0.00 0.00
1:56 am 01:56 Clear 28 -2.2 26 -3.3 92 92 NW 8 13 30.16 1021 10 16 0.00 0.00
2:56 am 02:56 Clear 27 -2.8 25 -3.9 92 92 NW 8 13 30.17 1022 10 16 0.00 0.00
3:56 am 03:56 Clear 25 -3.9 23 -5 92 92 NW 7 11 30.16 1021 10 16 0.00 0.00
4:56 am 04:56 Clear 22 -5.6 20 -6.7 92 92 NW 7 11 30.16 1021 10 16 0.00 0.00
5:56 am 05:56 Clear 24 -4.4 23 -5 96 96 SW 5 7 30.15 1021 10 16 0.00 0.00
6:56 am 06:56 Clear 22 -5.6 20 -6.7 92 92 WSW 8 13 30.17 1022 10 16 0.00 0.00
7:56 am 07:56 Sunny 23 -5 21 -6.1 92 92 W 6 9 30.14 1021 10 16 0.00 0.00
8:56 am 08:56 Sunny 27 -2.8 25 -3.9 92 92 SW 8 13 30.11 1020 10 16 0.00 0.00
9:56 am 09:56 Sunny 33 0.6 28 -2.2 82 82 SW 10 17 30.06 1018 10 16 0.00 0.00
10:56 am 10:56 Sunny 41 5 31 -0.6 67 67 SW 20 31 30.02 1017 10 16 0.00 0.00
11:56 am 11:56 Sunny 45 7.2 32 0 61 61 WSW 23 37 29.97 1015 10 16 0.00 0.00
12:56 pm 12:56 Sunny 50 10 32 0 50 50 SW 20 31 29.90 1012 10 16 0.00 0.00
1:56 pm 13:56 Sunny 54 12.2 32 0 43 43 SW 21 33 29.84 1011 10 16 0.00 0.00
2:56 pm 14:56 Partly Cloudy 59 15 31 -0.6 35 35 WSW 22 35 29.79 1009 10 16 0.00 0.00
3:56 pm 15:56 Partly Cloudy 61 16.1 30 -1.1 31 31 W 20 31 29.76 1008 10 16 0.00 0.00
4:56 pm 16:56 Sunny 62 16.7 28 -2.2 28 28 W 18 30 29.71 1006 10 16 0.00 0.00
5:56 pm 17:56 Sunny 61 16.1 28 -2.2 29 29 W 13 20 29.70 1006 10 16 0.00 0.00
6:56 pm 18:56 Mostly Clear 58 14.4 28 -2.2 32 32 WSW 12 19 29.70 1006 10 16 0.00 0.00
7:56 pm 19:56 Mostly Cloudy 55 12.8 28 -2.2 35 35 WSW 12 19 29.69 1005 10 16 0.00 0.00
8:56 pm 20:56 Cloudy 55 12.8 28 -2.2 35 35 WSW 13 20 29.66 1004 10 16 0.00 0.00
9:56 pm 21:56 Mostly Cloudy 55 12.8 28 -2.2 35 35 W 14 22 29.64 1004 10 16 0.00 0.00
10:56 pm 22:56 Clear 55 12.8 29 -1.7 37 37 W 14 22 29.62 1003 10 16 0.00 0.00
11:56 pm 23:56 Mostly Cloudy 53 11.7 29 -1.7 40 40 NW 10 17 29.63 1004 10 16 0.00 0.00

Powered by AerisWeather